Midlothian, TX

7:08 AM CDT on October 22, 2019 (GMT -0500)
Midlothian

Weather History for KJWY - September, 2019

Change the Weather History Date:

Sunday, September 15, 2019

  Actual Average (WUND) Record (WUND)
Temperature  
Mean Temperature 84 °F -  
Max Temperature 98 °F - - (-1)
Min Temperature 70 °F - - (-1)
Cooling Degree Days 18    
Growing Degree Days 34 (Base 50)    
Moisture  
Dew Point 65 °F    
Average Humidity 53    
Maximum Humidity 85    
Minimum Humidity 31    
Precipitation  
Precipitation 0.00 in - - ()
Sea Level Pressure  
Sea Level Pressure 30.07 in    
Wind  
Wind Speed 1 mph (East)    
Max Wind Speed 10 mph    
Max Gust Speed -    
Visibility 10 miles    
Events      
Averages and records for this station are not official NWS values.
T = Trace of Precipitation, MM = Missing Value Source: NWS Daily Summary

Daily Weather History Graph

Daily Weather History Graph

Search for Another Location

Airport or City:

Astronomy

Sep. 15, 2019 Rise Set
Actual Time 7:11 AM CDT 7:33 PM CDT
Civil Twilight 6:46 AM CDT 7:58 PM CDT
Nautical Twilight 6:17 AM CDT 8:27 PM CDT
Astronomical Twilight 5:48 AM CDT 8:56 PM CDT
Moon 8:45 PM CDT (9/15) 8:21 AM CDT (9/15)
Length of Visible Light 13h 11m
Length of Day
12h 22m
Full, 98% of the Moon is Illuminated
Sep 15
Full
Sep 21
Last Quarter
Sep 28
New
Oct 5
First Quarter
Oct 13
Full

Hourly Weather History & Observations

Time (CDT) Temp. Heat Index Dew Point Humidity Pressure Visibility Wind Dir Wind Speed Gust Speed Precip Events Conditions
12:15 AM 81.7 °F 83.5 °F 65.3 °F 57% 30.10 in 10.0 mi Calm Calm - N/A   Scattered Clouds
12:35 AM 80.6 °F 82.5 °F 65.5 °F 60% 30.10 in 10.0 mi Calm Calm - N/A   Clear
12:55 AM 80.1 °F 82.0 °F 65.7 °F 61% 30.10 in 10.0 mi Calm Calm - N/A   Clear
1:15 AM 79.5 °F - 65.7 °F 62% 30.10 in 10.0 mi Calm Calm - N/A   Clear
1:35 AM 79.7 °F - 66.0 °F 63% 30.10 in 10.0 mi Calm Calm - N/A   Clear
1:55 AM 79.0 °F - 65.8 °F 64% 30.10 in 10.0 mi Calm Calm - N/A   Clear
2:15 AM 78.1 °F - 66.2 °F 67% 30.10 in 10.0 mi Calm Calm - N/A   Clear
2:35 AM 77.7 °F - 65.8 °F 67% 30.11 in 10.0 mi Calm Calm - N/A   Clear
2:55 AM 77.5 °F - 66.0 °F 68% 30.10 in 10.0 mi Calm Calm - N/A   Clear
3:15 AM 76.3 °F - 66.0 °F 70% 30.10 in 10.0 mi Calm Calm - N/A   Clear
3:35 AM 76.3 °F - 66.2 °F 71% 30.10 in 10.0 mi Calm Calm - N/A   Clear
3:55 AM 75.2 °F - 65.8 °F 73% 30.09 in 10.0 mi Calm Calm - N/A   Clear
4:15 AM 75.2 °F - 66.0 °F 73% 30.09 in 10.0 mi Calm Calm - N/A   Clear
4:35 AM 73.4 °F - 65.8 °F 77% 30.09 in 10.0 mi Calm Calm - N/A   Clear
4:55 AM 74.3 °F - 65.8 °F 75% 30.09 in 10.0 mi ENE 3.5 mph - N/A   Clear
5:15 AM 74.1 °F - 65.8 °F 75% 30.10 in 10.0 mi Calm Calm - N/A   Clear
5:35 AM 72.7 °F - 65.7 °F 79% 30.09 in 10.0 mi Calm Calm - N/A   Clear
5:55 AM 73.0 °F - 65.8 °F 78% 30.09 in 10.0 mi Calm Calm - N/A   Clear
6:35 AM 72.3 °F - 65.7 °F 79% 30.10 in 10.0 mi Calm Calm - N/A   Clear
6:55 AM 72.0 °F - 65.7 °F 80% 30.10 in 10.0 mi Calm Calm - N/A   Clear
7:15 AM 70.3 °F - 64.8 °F 82% 30.11 in 10.0 mi Calm Calm - N/A   Clear
7:35 AM 70.2 °F - 65.3 °F 85% 30.11 in 10.0 mi Calm Calm - N/A   Clear
7:55 AM 70.7 °F - 65.8 °F 85% 30.11 in 10.0 mi Calm Calm - N/A   Clear
8:15 AM 73.8 °F - 67.1 °F 80% 30.11 in 10.0 mi Calm Calm - N/A   Clear
8:35 AM 76.5 °F - 67.1 °F 73% 30.11 in 10.0 mi Calm Calm - N/A   Clear
8:55 AM 79.0 °F - 65.8 °F 64% 30.11 in 10.0 mi Calm Calm - N/A   Clear
9:15 AM 81.7 °F 83.6 °F 65.8 °F 58% 30.11 in 10.0 mi Calm Calm - N/A   Clear
9:35 AM 83.5 °F 85.5 °F 65.8 °F 55% 30.11 in 10.0 mi Calm Calm - N/A   Clear
9:55 AM 85.8 °F 87.9 °F 65.7 °F 51% 30.11 in 10.0 mi Calm Calm - N/A   Clear
10:15 AM 87.8 °F 89.7 °F 65.1 °F 47% 30.12 in 10.0 mi Calm Calm - N/A   Clear
10:35 AM 89.1 °F 90.0 °F 63.0 °F 42% 30.12 in 10.0 mi Calm Calm - N/A   Clear
10:55 AM 90.7 °F 91.3 °F 62.8 °F 39% 30.12 in 10.0 mi Calm Calm - N/A   Clear
11:15 AM 92.3 °F 93.4 °F 63.5 °F 38% 30.12 in 10.0 mi SE 3.5 mph - N/A   Clear
11:35 AM 92.3 °F 93.4 °F 63.3 °F 38% 30.11 in 10.0 mi SE 5.8 mph - N/A   Clear
11:55 AM 93.4 °F 94.7 °F 63.1 °F 37% 30.11 in 10.0 mi SSE 8.1 mph - N/A   Clear
12:15 PM 94.1 °F 95.0 °F 62.6 °F 35% 30.10 in 10.0 mi ENE 6.9 mph - N/A   Clear
12:35 PM 95.4 °F 96.6 °F 62.8 °F 34% 30.10 in 10.0 mi ESE 5.8 mph - N/A   Scattered Clouds
12:55 PM 94.8 °F 95.3 °F 61.7 °F 33% 30.09 in 10.0 mi East 5.8 mph - N/A   Scattered Clouds
1:15 PM 95.9 °F 97.0 °F 62.6 °F 33% 30.09 in 10.0 mi SE 3.5 mph - N/A   Scattered Clouds
1:35 PM 96.4 °F 97.4 °F 61.7 °F 32% 30.08 in 10.0 mi East 5.8 mph - N/A   Scattered Clouds
1:55 PM 96.6 °F 97.7 °F 61.9 °F 32% 30.06 in 10.0 mi Calm Calm - N/A   Clear
2:15 PM 95.5 °F 96.5 °F 61.9 °F 33% 30.06 in 10.0 mi SSE 5.8 mph - N/A   Clear
2:35 PM 97.5 °F 98.7 °F 62.4 °F 31% 30.05 in 10.0 mi ENE 5.8 mph - N/A   Clear
2:55 PM 97.3 °F 98.4 °F 61.7 °F 31% 30.05 in 10.0 mi East 5.8 mph - N/A   Clear
3:15 PM 97.5 °F 98.7 °F 61.9 °F 31% 30.03 in 10.0 mi ENE 5.8 mph - N/A   Clear
3:35 PM 97.2 °F 99.1 °F 63.7 °F 33% 30.03 in 10.0 mi East 6.9 mph - N/A   Clear
3:55 PM 96.6 °F 98.7 °F 63.7 °F 34% 30.02 in 10.0 mi ENE 10.4 mph - N/A   Scattered Clouds
4:15 PM 96.6 °F 98.2 °F 63.5 °F 33% 30.02 in 10.0 mi ENE 8.1 mph - N/A   Scattered Clouds
4:35 PM 96.8 °F 98.5 °F 63.0 °F 33% 30.01 in 10.0 mi East 5.8 mph - N/A   Scattered Clouds
4:55 PM 97.2 °F 99.1 °F 63.3 °F 33% 30.01 in 10.0 mi ESE 4.6 mph - N/A   Scattered Clouds
5:15 PM 95.5 °F 97.4 °F 63.5 °F 35% 30.01 in 10.0 mi East 3.5 mph - N/A   Scattered Clouds
5:35 PM 95.0 °F 96.5 °F 63.7 °F 35% 30.01 in 10.0 mi East 6.9 mph - N/A   Scattered Clouds
5:55 PM 94.6 °F 96.4 °F 63.7 °F 36% 30.01 in 10.0 mi East 4.6 mph - N/A   Scattered Clouds
6:15 PM 94.1 °F 95.5 °F 63.5 °F 36% 30.01 in 10.0 mi East 5.8 mph - N/A   Scattered Clouds
6:35 PM 93.4 °F 94.7 °F 63.5 °F 37% 30.01 in 10.0 mi East 4.6 mph - N/A   Clear
6:55 PM 92.1 °F 93.2 °F 63.5 °F 38% 30.01 in 10.0 mi Calm Calm - N/A   Clear
7:15 PM 90.9 °F 92.0 °F 63.7 °F 40% 30.01 in 10.0 mi Calm Calm - N/A   Clear
7:35 PM 89.6 °F 90.8 °F 64.0 °F 42% 30.01 in 10.0 mi Calm Calm - N/A   Clear
7:55 PM 88.2 °F 89.6 °F 64.4 °F 45% 30.01 in 10.0 mi Calm Calm - N/A   Clear
8:15 PM 86.9 °F 88.6 °F 64.8 °F 48% 30.01 in 10.0 mi Calm Calm - N/A   Clear
8:35 PM 86.0 °F 87.6 °F 64.8 °F 49% 30.02 in 10.0 mi Calm Calm - N/A   Clear
8:55 PM 84.7 °F 86.3 °F 64.8 °F 51% 30.02 in 10.0 mi Calm Calm - N/A   Clear
9:15 PM 83.5 °F 85.1 °F 64.9 °F 53% 30.03 in 10.0 mi NE 3.5 mph - N/A   Clear
9:35 PM 83.7 °F 85.5 °F 65.3 °F 54% 30.03 in 10.0 mi Calm Calm - N/A   Clear
9:55 PM 83.3 °F 85.3 °F 65.5 °F 55% 30.03 in 10.0 mi NE 3.5 mph - N/A   Clear
10:15 PM 82.9 °F 85.0 °F 66.0 °F 56% 30.04 in 10.0 mi Calm Calm - N/A   Clear
10:35 PM 82.4 °F 84.6 °F 66.2 °F 58% 30.04 in 10.0 mi Calm Calm - N/A   Clear
10:55 PM 80.4 °F 82.6 °F 66.2 °F 62% 30.04 in 10.0 mi Calm Calm - N/A   Clear
11:15 PM 79.9 °F - 66.2 °F 63% 30.05 in 10.0 mi Calm Calm - N/A   Clear
11:35 PM 79.3 °F - 66.4 °F 64% 30.05 in 10.0 mi Calm Calm - N/A   Clear
11:55 PM 77.9 °F - 66.7 °F 68% 30.05 in 10.0 mi Calm Calm - N/A   Clear